This is the latest recevied weather packets stored in our database for station/object ESTLAW. If no packets are shown the sender has not sent any weather packets the latest 1 day(s).
| Time | Temp. | Humidity | Pressure | Rain* | Wind** | Luminosity | Snow |
|---|---|---|---|---|---|---|---|
| 1778099572 | -34.44° C | 7% | 31.7 hPa | 0 mm | - | - | - |
| 1778099127 | -34.44° C | 7% | 31.7 hPa | 0 mm | - | - | - |
| 1778097791 | -36.67° C | 5% | 507.5 hPa | 0 mm | - | - | - |
| 1778097346 | -37.22° C | 5% | 507.5 hPa | 0 mm | - | - | - |
| 1778093784 | -41.67° C | 27% | 507.5 hPa | 0 mm | - | - | - |
| 1778093339 | -41.67° C | 27% | 507.5 hPa | 0 mm | - | - | - |
| 1778091558 | -42.22° C | 27% | 507.5 hPa | 0 mm | - | - | - |
| 1778089777 | -47.78° C | 5% | 1.9 hPa | 0 mm | - | - | - |
| 1778089332 | -47.78° C | 5% | 1.9 hPa | 0 mm | - | - | - |
| 1778088441 | -46.67° C | 54% | 1.9 hPa | 0 mm | - | - | - |
| 1778087551 | -45° C | 54% | 1.9 hPa | 0 mm | - | - | - |
| 1778085770 | -47.78° C | 54% | 1.9 hPa | 0 mm | - | - | - |
| 1778083989 | -47.78° C | 54% | 1.9 hPa | 0 mm | - | - | - |
| 1778083544 | -47.78° C | 53% | 6.1 hPa | 0 mm | - | - | - |
| 1778081763 | -47.78° C | 53% | 6.1 hPa | 0 mm | - | - | - |
| 1778079982 | -42.22° C | 7% | 6.1 hPa | 0 mm | - | - | - |
| 1778079537 | -46.11° C | 7% | 6.1 hPa | 0 mm | - | - | - |
| 1778077756 | -41.11° C | 7% | 6.1 hPa | 0 mm | - | - | - |
| 1778075975 | -41.11° C | 100% | 0 hPa | 0 mm | - | - | - |
| 1778074194 | -41.11° C | 54% | 0 hPa | 0 mm | - | - | - |
| 1778073749 | -41.67° C | 54% | 0 hPa | 0 mm | - | - | - |
| 1778071968 | -41.67° C | 54% | 0 hPa | 0 mm | - | - | - |
| 1778069742 | -47.22° C | 54% | 0 hPa | 0 mm | - | - | - |
| 1778068406 | -47.78° C | 100% | 0 hPa | 0 mm | - | - | - |
| 1778067961 | -47.78° C | 100% | 0 hPa | 0 mm | - | - | - |
* Rain since midnight (hover to see other rain measurements)
** Current wind speed in m/s (hover to see current wind gust speed)